Year,Month,Day,Hour,Minute,Value (Times are PST for temperature in C)
2014,05,18,00,00,10.30
2014,05,18,00,01,10.30
2014,05,18,00,02,10.30
2014,05,18,00,03,10.30
2014,05,18,00,04,10.30
2014,05,18,00,05,10.30
2014,05,18,00,06,10.30
2014,05,18,00,07,10.30
2014,05,18,00,08,10.30
2014,05,18,00,09,10.30
2014,05,18,00,10,10.30
2014,05,18,00,11,10.40
2014,05,18,00,12,10.40
2014,05,18,00,13,10.40
2014,05,18,00,14,10.40
2014,05,18,00,15,10.30
2014,05,18,00,16,10.30
2014,05,18,00,17,10.30
2014,05,18,00,18,10.30
2014,05,18,00,19,10.30
2014,05,18,00,20,10.30
2014,05,18,00,21,10.30
2014,05,18,00,22,10.30
2014,05,18,00,23,10.30
2014,05,18,00,24,10.30
2014,05,18,00,25,10.20
2014,05,18,00,26,10.20
2014,05,18,00,27,10.20
2014,05,18,00,28,10.20
2014,05,18,00,29,10.20
2014,05,18,00,30,10.10
2014,05,18,00,31,10.10
2014,05,18,00,32,10.10
2014,05,18,00,33,10.10
2014,05,18,00,34,10.10
2014,05,18,00,35,10.00
2014,05,18,00,36,10.00
2014,05,18,00,37,10.00
2014,05,18,00,38,10.00
2014,05,18,00,39,9.90
2014,05,18,00,40,9.90
2014,05,18,00,41,9.90
2014,05,18,00,42,9.90
2014,05,18,00,43,9.90
2014,05,18,00,44,9.90
2014,05,18,00,45,9.90
2014,05,18,00,46,9.90
2014,05,18,00,47,9.90
2014,05,18,00,48,9.90
2014,05,18,00,49,9.90
2014,05,18,00,50,9.90
2014,05,18,00,51,9.80
2014,05,18,00,52,9.80
2014,05,18,00,53,9.80
2014,05,18,00,54,9.80
2014,05,18,00,55,9.80
2014,05,18,00,56,9.70
2014,05,18,00,57,9.70
2014,05,18,00,58,9.70
2014,05,18,00,59,9.70
2014,05,18,01,00,9.70
2014,05,18,01,01,9.60
2014,05,18,01,02,9.60
2014,05,18,01,03,9.60
2014,05,18,01,04,9.50
2014,05,18,01,05,9.50
2014,05,18,01,06,9.50
2014,05,18,01,07,9.40
2014,05,18,01,08,9.40
2014,05,18,01,09,9.40
2014,05,18,01,10,9.40
2014,05,18,01,11,9.40
2014,05,18,01,12,9.40
2014,05,18,01,13,9.30
2014,05,18,01,14,9.30
2014,05,18,01,15,9.30
2014,05,18,01,16,9.30
2014,05,18,01,17,9.30
2014,05,18,01,18,9.20
2014,05,18,01,19,9.20
2014,05,18,01,20,9.20
2014,05,18,01,21,9.20
2014,05,18,01,22,9.20
2014,05,18,01,23,9.20
2014,05,18,01,24,9.20
2014,05,18,01,25,9.10
2014,05,18,01,26,9.10
2014,05,18,01,27,9.10
2014,05,18,01,28,9.10
2014,05,18,01,29,9.10
2014,05,18,01,30,9.10
2014,05,18,01,31,9.10
2014,05,18,01,32,9.00
2014,05,18,01,33,9.00
2014,05,18,01,34,9.00
2014,05,18,01,35,8.90
2014,05,18,01,36,8.90
2014,05,18,01,37,8.90
2014,05,18,01,38,8.90
2014,05,18,01,39,8.80
2014,05,18,01,40,8.80
2014,05,18,01,41,8.80
2014,05,18,01,42,8.80
2014,05,18,01,43,8.80
2014,05,18,01,44,8.80
2014,05,18,01,45,8.80
2014,05,18,01,46,8.80
2014,05,18,01,47,8.80
2014,05,18,01,48,8.80
2014,05,18,01,49,8.80
2014,05,18,01,50,8.80
2014,05,18,01,51,8.80
2014,05,18,01,52,8.80
2014,05,18,01,53,8.80
2014,05,18,01,54,8.80
2014,05,18,01,55,8.80
2014,05,18,01,56,8.80
2014,05,18,01,57,8.70
2014,05,18,01,58,8.70
2014,05,18,01,59,8.60
2014,05,18,02,00,8.60
2014,05,18,02,01,8.60
2014,05,18,02,02,8.60
2014,05,18,02,03,8.60
2014,05,18,02,04,8.60
2014,05,18,02,05,8.60
2014,05,18,02,06,8.60
2014,05,18,02,07,8.60
2014,05,18,02,08,8.60
2014,05,18,02,09,8.50
2014,05,18,02,10,8.50
2014,05,18,02,11,8.50
2014,05,18,02,12,8.50
2014,05,18,02,13,8.50
2014,05,18,02,14,8.40
2014,05,18,02,15,8.40
2014,05,18,02,16,8.40
2014,05,18,02,17,8.40
2014,05,18,02,18,8.30
2014,05,18,02,19,8.30
2014,05,18,02,20,8.30
2014,05,18,02,21,8.30
2014,05,18,02,22,8.30
2014,05,18,02,23,8.30
2014,05,18,02,24,8.30
2014,05,18,02,25,8.30
2014,05,18,02,26,8.30
2014,05,18,02,27,8.20
2014,05,18,02,28,8.20
2014,05,18,02,29,8.20
2014,05,18,02,30,8.20
2014,05,18,02,31,8.20
2014,05,18,02,32,8.20
2014,05,18,02,33,8.20
2014,05,18,02,34,8.20
2014,05,18,02,35,8.20
2014,05,18,02,36,8.10
2014,05,18,02,37,8.10
2014,05,18,02,38,8.10
2014,05,18,02,39,8.10
2014,05,18,02,40,8.10
2014,05,18,02,41,8.10
2014,05,18,02,42,8.10
2014,05,18,02,43,8.10
2014,05,18,02,44,8.10
2014,05,18,02,45,8.10
2014,05,18,02,46,8.10
2014,05,18,02,47,8.10
2014,05,18,02,48,8.10
2014,05,18,03,04,8.20
2014,05,18,03,05,8.20
2014,05,18,03,06,8.20
2014,05,18,03,07,8.20
2014,05,18,03,08,8.20
2014,05,18,03,09,8.20
2014,05,18,03,10,8.20
2014,05,18,03,11,8.20
2014,05,18,03,12,8.20
2014,05,18,03,13,8.20
2014,05,18,03,14,8.20
2014,05,18,03,15,8.20
2014,05,18,03,16,8.20
2014,05,18,03,17,8.20
2014,05,18,03,18,8.20
2014,05,18,03,19,8.20
2014,05,18,03,20,8.20
2014,05,18,03,21,8.20
2014,05,18,03,22,8.20
2014,05,18,03,23,8.20
2014,05,18,03,24,8.20
2014,05,18,03,25,8.20
2014,05,18,03,26,8.20
2014,05,18,03,27,8.20
2014,05,18,03,28,8.20
2014,05,18,03,29,8.20
2014,05,18,03,30,8.20
2014,05,18,03,31,8.20
2014,05,18,03,32,8.20
2014,05,18,03,33,8.20
2014,05,18,03,34,8.20
2014,05,18,03,35,8.20
2014,05,18,03,36,8.20
2014,05,18,03,37,8.20
2014,05,18,03,38,8.20
2014,05,18,03,39,8.20
2014,05,18,03,40,8.20
2014,05,18,03,41,8.20
2014,05,18,03,42,8.20
2014,05,18,03,43,8.20
2014,05,18,03,44,8.10
2014,05,18,03,45,8.10
2014,05,18,03,46,8.10
2014,05,18,03,47,8.10
2014,05,18,03,48,8.10
2014,05,18,03,49,8.10
2014,05,18,03,50,8.10
2014,05,18,03,51,8.10
2014,05,18,03,52,8.10
2014,05,18,03,53,8.10
2014,05,18,03,54,8.10
2014,05,18,03,55,8.10
2014,05,18,03,56,8.10
2014,05,18,03,57,8.10
2014,05,18,03,58,8.10
2014,05,18,03,59,8.10
2014,05,18,04,00,8.10
2014,05,18,04,01,8.10
2014,05,18,04,02,8.10
2014,05,18,04,03,8.00
2014,05,18,04,04,8.00
2014,05,18,04,05,8.00
2014,05,18,04,06,8.00
2014,05,18,04,07,7.90
2014,05,18,04,08,7.90
2014,05,18,04,09,7.90
2014,05,18,04,10,7.90
2014,05,18,04,11,7.90
2014,05,18,04,12,7.80
2014,05,18,04,13,7.80
2014,05,18,04,14,7.80
2014,05,18,04,15,7.80
2014,05,18,04,16,7.80
2014,05,18,04,17,7.80
2014,05,18,04,18,7.80
2014,05,18,04,19,7.80
2014,05,18,04,20,7.70
2014,05,18,04,21,7.70
2014,05,18,04,22,7.70
2014,05,18,04,23,7.70
2014,05,18,04,24,7.70
2014,05,18,04,25,7.70
2014,05,18,04,26,7.70
2014,05,18,04,27,7.60
2014,05,18,04,28,7.60
2014,05,18,04,29,7.60
2014,05,18,04,30,7.60
2014,05,18,04,31,7.60
2014,05,18,04,32,7.50
2014,05,18,04,33,7.50
2014,05,18,04,34,7.50
2014,05,18,04,35,7.50
2014,05,18,04,36,7.50
2014,05,18,04,37,7.50
2014,05,18,04,38,7.50
2014,05,18,04,39,7.50
2014,05,18,04,40,7.50
2014,05,18,04,41,7.50
2014,05,18,04,42,7.50
2014,05,18,04,43,7.50
2014,05,18,04,44,7.50
2014,05,18,04,45,7.50
2014,05,18,04,46,7.50
2014,05,18,04,47,7.50
2014,05,18,04,48,7.50
2014,05,18,04,49,7.50
2014,05,18,04,50,7.50
2014,05,18,04,51,7.50
2014,05,18,04,52,7.40
2014,05,18,04,53,7.40
2014,05,18,04,54,7.40
2014,05,18,04,55,7.40
2014,05,18,04,56,7.40
2014,05,18,04,57,7.40
2014,05,18,04,58,7.40
2014,05,18,04,59,7.40
2014,05,18,05,00,7.40
2014,05,18,05,01,7.40
2014,05,18,05,02,7.40
2014,05,18,05,03,7.40
2014,05,18,05,04,7.40
2014,05,18,05,05,7.30
2014,05,18,05,06,7.30
2014,05,18,05,07,7.30
2014,05,18,05,08,7.30
2014,05,18,05,09,7.30
2014,05,18,05,10,7.30
2014,05,18,05,11,7.30
2014,05,18,05,12,7.30
2014,05,18,05,13,7.30
2014,05,18,05,14,7.30
2014,05,18,05,15,7.30
2014,05,18,05,16,7.20
2014,05,18,05,17,7.20
2014,05,18,05,18,7.20
2014,05,18,05,19,7.20
2014,05,18,05,20,7.20
2014,05,18,05,21,7.20
2014,05,18,05,22,7.20
2014,05,18,05,23,7.20
2014,05,18,05,24,7.20
2014,05,18,05,25,7.20
2014,05,18,05,26,7.20
2014,05,18,05,27,7.20
2014,05,18,05,28,7.20
2014,05,18,05,29,7.20
2014,05,18,05,30,7.20
2014,05,18,05,31,7.20
2014,05,18,05,32,7.20
2014,05,18,05,33,7.20
2014,05,18,05,34,7.20
2014,05,18,05,35,7.20
2014,05,18,05,36,7.30
2014,05,18,05,37,7.30
2014,05,18,05,38,7.30
2014,05,18,05,39,7.30
2014,05,18,05,40,7.30
2014,05,18,05,41,7.30
2014,05,18,05,42,7.30
2014,05,18,05,43,7.40
2014,05,18,05,44,7.40
2014,05,18,05,45,7.40
2014,05,18,05,46,7.40
2014,05,18,05,47,7.40
2014,05,18,05,48,7.40
2014,05,18,05,49,7.40
2014,05,18,05,50,7.50
2014,05,18,05,51,7.50
2014,05,18,05,52,7.50
2014,05,18,05,53,7.50
2014,05,18,05,54,7.50
2014,05,18,05,55,7.50
2014,05,18,05,56,7.50
2014,05,18,05,57,7.50
2014,05,18,05,58,7.50
2014,05,18,05,59,7.60
2014,05,18,06,00,7.50
2014,05,18,06,01,7.50
2014,05,18,06,02,7.50
2014,05,18,06,03,7.50
2014,05,18,06,04,7.50
2014,05,18,06,05,7.50
2014,05,18,06,06,7.50
2014,05,18,06,07,7.40
2014,05,18,06,08,7.40
2014,05,18,06,09,7.40
2014,05,18,06,10,7.40
2014,05,18,06,11,7.40
2014,05,18,06,12,7.40
2014,05,18,06,13,7.40
2014,05,18,06,14,7.30
2014,05,18,06,15,7.30
2014,05,18,06,16,7.30
2014,05,18,06,17,7.20
2014,05,18,06,18,7.20
2014,05,18,06,19,7.20
2014,05,18,06,20,7.10
2014,05,18,06,21,7.10
2014,05,18,06,22,7.10
2014,05,18,06,23,7.10
2014,05,18,06,24,7.10
2014,05,18,06,25,7.00
2014,05,18,06,26,7.00
2014,05,18,06,27,7.00
2014,05,18,06,28,7.00
2014,05,18,06,29,7.00
2014,05,18,06,30,7.00
2014,05,18,06,31,7.00
2014,05,18,06,32,7.00
2014,05,18,06,33,7.00
2014,05,18,06,34,7.00
2014,05,18,06,35,7.10
2014,05,18,06,36,7.10
2014,05,18,06,37,7.10
2014,05,18,06,38,7.10
2014,05,18,06,39,7.10
2014,05,18,06,40,7.10
2014,05,18,06,41,7.10
2014,05,18,06,42,7.10
2014,05,18,06,43,7.10
2014,05,18,06,44,7.10
2014,05,18,06,45,7.10
2014,05,18,06,46,7.10
2014,05,18,06,47,7.10
2014,05,18,06,48,7.10
2014,05,18,06,49,7.20
2014,05,18,06,50,7.20
2014,05,18,06,51,7.20
2014,05,18,06,52,7.20
2014,05,18,06,53,7.20
2014,05,18,06,54,7.20
2014,05,18,06,55,7.30
2014,05,18,06,56,7.30
2014,05,18,06,57,7.30
2014,05,18,06,58,7.40
2014,05,18,06,59,7.40
2014,05,18,07,00,7.50
2014,05,18,07,01,7.50
2014,05,18,07,02,7.60
2014,05,18,07,03,7.70
2014,05,18,07,04,7.70
2014,05,18,07,05,7.70
2014,05,18,07,06,7.80
2014,05,18,07,07,7.80
2014,05,18,07,08,7.90
2014,05,18,07,09,7.90
2014,05,18,07,10,7.90
2014,05,18,07,11,8.00
2014,05,18,07,12,8.00
2014,05,18,07,13,8.00
2014,05,18,07,14,8.10
2014,05,18,07,15,8.10
2014,05,18,07,16,8.20
2014,05,18,07,17,8.20
2014,05,18,07,18,8.30
2014,05,18,07,19,8.30
2014,05,18,07,20,8.30
2014,05,18,07,21,8.40
2014,05,18,07,22,8.40
2014,05,18,07,23,8.50
2014,05,18,07,24,8.50
2014,05,18,07,25,8.60
2014,05,18,07,26,8.60
2014,05,18,07,27,8.70
2014,05,18,07,28,8.70
2014,05,18,07,29,8.80
2014,05,18,07,30,8.80
2014,05,18,07,31,8.80
2014,05,18,07,32,8.80
2014,05,18,07,33,8.90
2014,05,18,07,34,8.90
2014,05,18,07,35,9.00
2014,05,18,07,36,9.00
2014,05,18,07,37,9.00
2014,05,18,07,38,9.10
2014,05,18,07,39,9.10
2014,05,18,07,40,9.20
2014,05,18,07,41,9.20
2014,05,18,07,42,9.20
2014,05,18,07,43,9.20
2014,05,18,07,44,9.30
2014,05,18,07,45,9.30
2014,05,18,07,46,9.30
2014,05,18,07,47,9.30
2014,05,18,07,48,9.30
2014,05,18,07,49,9.40
2014,05,18,07,50,9.40
2014,05,18,07,51,9.40
2014,05,18,07,52,9.40
2014,05,18,07,53,9.40
2014,05,18,07,54,9.40
2014,05,18,07,55,9.40
2014,05,18,07,56,9.40
2014,05,18,07,57,9.40
2014,05,18,07,58,9.50
2014,05,18,07,59,9.50
2014,05,18,08,00,9.50
2014,05,18,08,01,9.50
2014,05,18,08,02,9.60
2014,05,18,08,03,9.60
2014,05,18,08,04,9.60
2014,05,18,08,05,9.60
2014,05,18,08,06,9.60
2014,05,18,08,07,9.60
2014,05,18,08,08,9.70
2014,05,18,08,09,9.80
2014,05,18,08,10,9.90
2014,05,18,08,11,10.00
2014,05,18,08,12,10.10
2014,05,18,08,13,10.20
2014,05,18,08,14,10.30
2014,05,18,08,15,10.40
2014,05,18,08,16,10.50
2014,05,18,08,17,10.60
2014,05,18,08,18,10.70
2014,05,18,08,19,10.80
2014,05,18,08,20,10.90
2014,05,18,08,21,10.90
2014,05,18,08,22,11.00
2014,05,18,08,23,11.00
2014,05,18,08,24,11.00
2014,05,18,08,25,11.00
2014,05,18,08,26,11.00
2014,05,18,08,27,10.90
2014,05,18,08,28,11.00
2014,05,18,08,29,10.90
2014,05,18,08,30,11.00
2014,05,18,08,31,11.00
2014,05,18,08,32,11.10
2014,05,18,08,33,11.10
2014,05,18,08,34,11.20
2014,05,18,08,35,11.20
2014,05,18,08,36,11.30
2014,05,18,08,37,11.50
2014,05,18,08,38,11.50
2014,05,18,08,39,11.60
2014,05,18,08,40,11.70
2014,05,18,08,41,11.70
2014,05,18,08,42,11.70
2014,05,18,08,43,11.80
2014,05,18,08,44,11.80
2014,05,18,08,45,11.80
2014,05,18,08,46,11.90
2014,05,18,08,47,11.90
2014,05,18,08,48,12.00
2014,05,18,08,49,12.10
2014,05,18,08,50,12.10
2014,05,18,08,51,12.20
2014,05,18,08,52,12.30
2014,05,18,08,53,12.40
2014,05,18,08,54,12.50
2014,05,18,08,55,12.60
2014,05,18,08,56,12.70
2014,05,18,08,57,12.90
2014,05,18,08,58,13.00
2014,05,18,08,59,13.00
2014,05,18,09,00,12.90
2014,05,18,09,01,12.90
2014,05,18,09,02,12.90
2014,05,18,09,03,12.80
2014,05,18,09,04,12.80
2014,05,18,09,05,12.80
2014,05,18,09,06,12.90
2014,05,18,09,07,12.90
2014,05,18,09,08,13.00
2014,05,18,09,09,13.10
2014,05,18,09,10,13.10
2014,05,18,09,11,13.00
2014,05,18,09,12,13.00
2014,05,18,09,13,12.90
2014,05,18,09,14,12.90
2014,05,18,09,15,13.00
2014,05,18,09,16,12.90
2014,05,18,09,17,12.90
2014,05,18,09,18,12.90
2014,05,18,09,19,12.90
2014,05,18,09,20,12.80
2014,05,18,09,21,12.80
2014,05,18,09,22,12.80
2014,05,18,09,23,12.80
2014,05,18,09,24,12.80
2014,05,18,09,25,12.80
2014,05,18,09,26,12.80
2014,05,18,09,27,12.80
2014,05,18,09,28,12.90
2014,05,18,09,29,13.00
2014,05,18,09,30,13.10
2014,05,18,09,31,13.20
2014,05,18,09,32,13.40
2014,05,18,09,33,13.50
2014,05,18,09,34,13.50
2014,05,18,09,35,13.50
2014,05,18,09,36,13.60
2014,05,18,09,37,13.60
2014,05,18,09,38,13.60
2014,05,18,09,39,13.60
2014,05,18,09,40,13.60
2014,05,18,09,41,13.60
2014,05,18,09,42,13.60
2014,05,18,09,43,13.60
2014,05,18,09,44,13.50
2014,05,18,09,45,13.50
2014,05,18,09,46,13.60
2014,05,18,09,47,13.60
2014,05,18,09,48,13.70
2014,05,18,09,49,13.70
2014,05,18,09,50,13.70
2014,05,18,09,51,13.80
2014,05,18,09,52,13.90
2014,05,18,09,53,14.00
2014,05,18,09,54,14.10
2014,05,18,09,55,14.10
2014,05,18,09,56,14.20
2014,05,18,09,57,14.30
2014,05,18,09,58,14.40
2014,05,18,09,59,14.40
2014,05,18,10,00,14.40
2014,05,18,10,01,14.40
2014,05,18,10,02,14.40
2014,05,18,10,03,14.40
2014,05,18,10,04,14.50
2014,05,18,10,05,14.50
2014,05,18,10,06,14.60
2014,05,18,10,07,14.60
2014,05,18,10,08,14.60
2014,05,18,10,09,14.70
2014,05,18,10,10,14.70
2014,05,18,10,11,14.80
2014,05,18,10,12,14.90
2014,05,18,10,13,15.10
2014,05,18,10,14,15.10
2014,05,18,10,15,15.10
2014,05,18,10,16,15.20
2014,05,18,10,17,15.30
2014,05,18,10,18,15.30
2014,05,18,10,19,15.40
2014,05,18,10,20,15.40
2014,05,18,10,21,15.50
2014,05,18,10,22,15.50
2014,05,18,10,23,15.60
2014,05,18,10,24,15.60
2014,05,18,10,25,15.70
2014,05,18,10,26,15.70
2014,05,18,10,27,15.70
2014,05,18,10,28,15.80
2014,05,18,10,29,15.80
2014,05,18,10,30,15.80
2014,05,18,10,31,15.80
2014,05,18,10,32,15.80
2014,05,18,10,33,15.90
2014,05,18,10,34,15.90
2014,05,18,10,35,15.90
2014,05,18,10,36,15.90
2014,05,18,10,37,16.00
2014,05,18,10,38,16.10
2014,05,18,10,39,16.10
2014,05,18,10,40,16.10
2014,05,18,10,41,16.00
2014,05,18,10,42,16.00
2014,05,18,10,43,16.00
2014,05,18,10,44,16.00
2014,05,18,10,45,16.10
2014,05,18,10,46,16.10
2014,05,18,10,47,16.10
2014,05,18,10,48,16.20
2014,05,18,10,49,16.40
2014,05,18,10,50,16.50
2014,05,18,10,51,16.60
2014,05,18,10,52,16.60
2014,05,18,10,53,16.60
2014,05,18,10,54,16.60
2014,05,18,10,55,16.50
2014,05,18,10,56,16.50
2014,05,18,10,57,16.50
2014,05,18,10,58,16.50
2014,05,18,10,59,16.50
2014,05,18,11,00,16.50
2014,05,18,11,01,16.60
2014,05,18,11,02,16.60
2014,05,18,11,03,16.70
2014,05,18,11,04,16.80
2014,05,18,11,05,16.90
2014,05,18,11,06,17.00
2014,05,18,11,07,17.10
2014,05,18,11,08,17.10
2014,05,18,11,09,17.30
2014,05,18,11,10,17.30
2014,05,18,11,11,17.40
2014,05,18,11,12,17.50
2014,05,18,11,13,17.60
2014,05,18,11,14,17.70
2014,05,18,11,15,17.70
2014,05,18,11,16,17.70
2014,05,18,11,17,17.80
2014,05,18,11,18,17.80
2014,05,18,11,19,17.80
2014,05,18,11,20,17.80
2014,05,18,11,21,17.80
2014,05,18,11,22,17.80
2014,05,18,11,23,17.70
2014,05,18,11,24,17.70
2014,05,18,11,25,17.80
2014,05,18,11,26,17.80
2014,05,18,11,27,17.80
2014,05,18,11,28,17.80
2014,05,18,11,29,17.80
2014,05,18,11,30,17.90
2014,05,18,11,31,18.00
2014,05,18,11,32,18.00
2014,05,18,11,33,18.10
2014,05,18,11,34,18.10
2014,05,18,11,35,18.10
2014,05,18,11,36,18.20
2014,05,18,11,37,18.30
2014,05,18,11,38,18.30
2014,05,18,11,39,18.50
2014,05,18,11,40,18.60
2014,05,18,11,41,18.70
2014,05,18,11,42,18.70
2014,05,18,11,43,18.70
2014,05,18,11,44,18.70
2014,05,18,11,45,18.70
2014,05,18,11,46,18.70
2014,05,18,11,47,18.70
2014,05,18,11,48,18.70
2014,05,18,11,49,18.80
2014,05,18,11,50,18.80
2014,05,18,11,51,18.90
2014,05,18,11,52,18.90
2014,05,18,11,53,19.00
2014,05,18,11,54,19.10
2014,05,18,11,55,19.10
2014,05,18,11,56,19.10
2014,05,18,11,57,19.20
2014,05,18,11,58,19.20
2014,05,18,11,59,19.20
2014,05,18,12,00,19.20
2014,05,18,12,01,19.30
2014,05,18,12,02,19.30
2014,05,18,12,03,19.30
2014,05,18,12,04,19.30
2014,05,18,12,05,19.30
2014,05,18,12,06,19.30
2014,05,18,12,07,19.30
2014,05,18,12,08,19.40
2014,05,18,12,09,19.40
2014,05,18,12,10,19.50
2014,05,18,12,11,19.50
2014,05,18,12,12,19.60
2014,05,18,12,13,19.60
2014,05,18,12,14,19.60
2014,05,18,12,15,19.50
2014,05,18,12,16,19.50
2014,05,18,12,17,19.50
2014,05,18,12,18,19.60
2014,05,18,12,19,19.60
2014,05,18,12,20,19.60
2014,05,18,12,21,19.60
2014,05,18,12,22,19.60
2014,05,18,12,23,19.70
2014,05,18,12,24,19.70
2014,05,18,12,25,19.70
2014,05,18,12,26,19.70
2014,05,18,12,27,19.70
2014,05,18,12,28,19.70
2014,05,18,12,29,19.60
2014,05,18,12,30,19.50
2014,05,18,12,31,19.50
2014,05,18,12,32,19.50
2014,05,18,12,33,19.40
2014,05,18,12,34,19.40
2014,05,18,12,35,19.40
2014,05,18,12,36,19.30
2014,05,18,12,37,19.30
2014,05,18,12,38,19.30
2014,05,18,12,39,19.30
2014,05,18,12,40,19.30
2014,05,18,12,41,19.30
2014,05,18,12,42,19.30
2014,05,18,12,43,19.30
2014,05,18,12,44,19.30
2014,05,18,12,45,19.30
2014,05,18,12,46,19.30
2014,05,18,12,47,19.30
2014,05,18,12,48,19.40
2014,05,18,12,49,19.50
2014,05,18,12,50,19.60
2014,05,18,12,51,19.60
2014,05,18,12,52,19.70
2014,05,18,12,53,19.80
2014,05,18,12,54,19.90
2014,05,18,12,55,19.90
2014,05,18,12,56,19.90
2014,05,18,12,57,19.80
2014,05,18,12,58,19.80
2014,05,18,12,59,19.80
2014,05,18,13,00,19.80
2014,05,18,13,01,19.80
2014,05,18,13,02,19.70
2014,05,18,13,03,19.60
2014,05,18,13,04,19.50
2014,05,18,13,05,19.50
2014,05,18,13,06,19.60
2014,05,18,13,07,19.70
2014,05,18,13,08,19.80
2014,05,18,13,09,19.90
2014,05,18,13,10,19.90
2014,05,18,13,11,20.00
2014,05,18,13,12,20.10
2014,05,18,13,13,20.10
2014,05,18,13,14,20.20
2014,05,18,13,15,20.20
2014,05,18,13,16,20.20
2014,05,18,13,17,20.20
2014,05,18,13,18,20.20
2014,05,18,13,19,20.10
2014,05,18,13,20,20.10
2014,05,18,13,21,20.10
2014,05,18,13,22,20.20
2014,05,18,13,23,20.30
2014,05,18,13,24,20.30
2014,05,18,13,25,20.30
2014,05,18,13,26,20.20
2014,05,18,13,27,20.20
2014,05,18,13,28,20.10
2014,05,18,13,29,20.10
2014,05,18,13,30,20.20
2014,05,18,13,31,20.20
2014,05,18,13,32,20.20
2014,05,18,13,33,20.20
2014,05,18,13,34,20.20
2014,05,18,13,35,20.20
2014,05,18,13,36,20.20
2014,05,18,13,37,20.10
2014,05,18,13,38,20.10
2014,05,18,13,39,20.10
2014,05,18,13,40,20.20
2014,05,18,13,41,20.20
2014,05,18,13,42,20.20
2014,05,18,13,43,20.20
2014,05,18,13,44,20.20
2014,05,18,13,45,20.20
2014,05,18,13,46,20.20
2014,05,18,13,47,20.20
2014,05,18,13,48,20.20
2014,05,18,13,49,20.20
2014,05,18,13,50,20.20
2014,05,18,13,51,20.20
2014,05,18,13,52,20.10
2014,05,18,13,53,20.10
2014,05,18,13,54,20.10
2014,05,18,13,55,20.10
2014,05,18,13,56,20.10
2014,05,18,13,57,20.10
2014,05,18,13,58,20.00
2014,05,18,13,59,20.10
2014,05,18,14,00,20.20
2014,05,18,14,01,20.20
2014,05,18,14,02,20.20
2014,05,18,14,03,20.20
2014,05,18,14,04,20.20
2014,05,18,14,05,20.10
2014,05,18,14,06,20.00
2014,05,18,14,07,19.90
2014,05,18,14,08,19.80
2014,05,18,14,09,19.70
2014,05,18,14,10,19.60
2014,05,18,14,11,19.60
2014,05,18,14,12,19.60
2014,05,18,14,13,19.50
2014,05,18,14,14,19.40
2014,05,18,14,15,19.40
2014,05,18,14,16,19.40
2014,05,18,14,17,19.40
2014,05,18,14,18,19.40
2014,05,18,14,19,19.50
2014,05,18,14,20,19.60
2014,05,18,14,21,19.60
2014,05,18,14,22,19.60
2014,05,18,14,23,19.50
2014,05,18,14,24,19.40
2014,05,18,14,25,19.30
2014,05,18,14,26,19.20
2014,05,18,14,27,19.20
2014,05,18,14,28,19.20
2014,05,18,14,29,19.10
2014,05,18,14,30,19.00
2014,05,18,14,31,18.90
2014,05,18,14,32,18.80
2014,05,18,14,33,18.60
2014,05,18,14,34,18.50
2014,05,18,14,35,18.50
2014,05,18,14,36,18.40
2014,05,18,14,37,18.50
2014,05,18,14,38,18.50
2014,05,18,14,39,18.50
2014,05,18,14,40,18.50
2014,05,18,14,41,18.50
2014,05,18,14,42,18.60
2014,05,18,14,43,18.60
2014,05,18,14,44,18.50
2014,05,18,14,45,18.50
2014,05,18,14,46,18.60
2014,05,18,14,47,18.60
2014,05,18,14,48,18.60
2014,05,18,14,49,18.60
2014,05,18,14,50,18.60
2014,05,18,14,51,18.60
2014,05,18,14,52,18.70
2014,05,18,14,53,18.70
2014,05,18,14,54,18.70
2014,05,18,14,55,18.70
2014,05,18,14,56,18.70
2014,05,18,14,57,18.70
2014,05,18,14,58,18.70
2014,05,18,14,59,18.70
2014,05,18,15,00,18.70
2014,05,18,15,01,18.70
2014,05,18,15,02,18.70
2014,05,18,15,03,18.70
2014,05,18,15,04,18.80
2014,05,18,15,05,18.80
2014,05,18,15,06,18.80
2014,05,18,15,07,18.80
2014,05,18,15,08,18.80
2014,05,18,15,09,18.80
2014,05,18,15,10,18.80
2014,05,18,15,11,18.80
2014,05,18,15,12,18.90
2014,05,18,15,13,18.90
2014,05,18,15,14,19.00
2014,05,18,15,15,19.00
2014,05,18,15,16,19.10
2014,05,18,15,17,19.20
2014,05,18,15,18,19.20
2014,05,18,15,19,19.20
2014,05,18,15,20,19.20
2014,05,18,15,21,19.20
2014,05,18,15,22,19.20
2014,05,18,15,23,19.20
2014,05,18,15,24,19.20
2014,05,18,15,25,19.10
2014,05,18,15,26,19.10
2014,05,18,15,27,19.00
2014,05,18,15,28,18.90
2014,05,18,15,29,18.70
2014,05,18,15,30,18.50
2014,05,18,15,31,18.30
2014,05,18,15,32,18.10
2014,05,18,15,33,18.00
2014,05,18,15,34,17.90
2014,05,18,15,35,17.80
2014,05,18,15,36,17.70
2014,05,18,15,37,17.60
2014,05,18,15,38,17.60
2014,05,18,15,39,17.60
2014,05,18,15,40,17.60
2014,05,18,15,41,17.50
2014,05,18,15,42,17.50
2014,05,18,15,43,17.40
2014,05,18,15,44,17.40
2014,05,18,15,45,17.40
2014,05,18,15,46,17.30
2014,05,18,15,47,17.30
2014,05,18,15,48,17.30
2014,05,18,15,49,17.40
2014,05,18,15,50,17.40
2014,05,18,15,51,17.40
2014,05,18,15,52,17.40
2014,05,18,15,53,17.40
2014,05,18,15,54,17.40
2014,05,18,15,55,17.40
2014,05,18,15,56,17.40
2014,05,18,15,57,17.30
2014,05,18,15,58,17.40
2014,05,18,15,59,17.40
2014,05,18,16,00,17.40
2014,05,18,16,01,17.40
2014,05,18,16,02,17.50
2014,05,18,16,03,17.50
2014,05,18,16,04,17.50
2014,05,18,16,05,17.50
2014,05,18,16,06,17.40
2014,05,18,16,07,17.40
2014,05,18,16,08,17.40
2014,05,18,16,09,17.40
2014,05,18,16,10,17.40
2014,05,18,16,11,17.40
2014,05,18,16,12,17.40
2014,05,18,16,13,17.40
2014,05,18,16,14,17.40
2014,05,18,16,15,17.40
2014,05,18,16,16,17.50
2014,05,18,16,17,17.50
2014,05,18,16,18,17.60
2014,05,18,16,19,17.50
2014,05,18,16,20,17.50
2014,05,18,16,21,17.50
2014,05,18,16,22,17.50
2014,05,18,16,23,17.40
2014,05,18,16,24,17.40
2014,05,18,16,25,17.40
2014,05,18,16,26,17.40
2014,05,18,16,27,17.40
2014,05,18,16,28,17.40
2014,05,18,16,29,17.40
2014,05,18,16,30,17.40
2014,05,18,16,31,17.40
2014,05,18,16,32,17.40
2014,05,18,16,33,17.40
2014,05,18,16,34,17.50
2014,05,18,16,35,17.50
2014,05,18,16,36,17.50
2014,05,18,16,37,17.50
2014,05,18,16,38,17.50
2014,05,18,16,39,17.50
2014,05,18,16,40,17.60
2014,05,18,16,41,17.60
2014,05,18,16,42,17.60
2014,05,18,16,43,17.60
2014,05,18,16,44,17.60
2014,05,18,16,45,17.60
2014,05,18,16,46,17.60
2014,05,18,16,47,17.60
2014,05,18,16,48,17.60
2014,05,18,16,49,17.60
2014,05,18,16,50,17.60
2014,05,18,16,51,17.70
2014,05,18,16,52,17.70
2014,05,18,16,53,17.70
2014,05,18,16,54,17.70
2014,05,18,16,55,17.70
2014,05,18,16,56,17.70
2014,05,18,16,57,17.80
2014,05,18,16,58,17.80
2014,05,18,16,59,17.80
2014,05,18,17,00,17.80
2014,05,18,17,01,17.80
2014,05,18,17,02,17.80
2014,05,18,17,03,17.80
2014,05,18,17,04,17.80
2014,05,18,17,05,17.80
2014,05,18,17,06,17.80
2014,05,18,17,07,17.70
2014,05,18,17,08,17.70
2014,05,18,17,09,17.80
2014,05,18,17,10,17.80
2014,05,18,17,11,17.80
2014,05,18,17,12,17.80
2014,05,18,17,13,17.80
2014,05,18,17,14,17.90
2014,05,18,17,15,17.90
2014,05,18,17,16,17.90
2014,05,18,17,17,17.90
2014,05,18,17,18,18.00
2014,05,18,17,19,18.00
2014,05,18,17,20,18.10
2014,05,18,17,21,18.00
2014,05,18,17,22,18.00
2014,05,18,17,23,17.90
2014,05,18,17,24,17.90
2014,05,18,17,25,17.80
2014,05,18,17,26,17.80
2014,05,18,17,27,17.80
2014,05,18,17,28,17.70
2014,05,18,17,29,17.60
2014,05,18,17,30,17.60
2014,05,18,17,31,17.50
2014,05,18,17,32,17.50
2014,05,18,17,33,17.40
2014,05,18,17,34,17.30
2014,05,18,17,35,17.20
2014,05,18,17,36,17.20
2014,05,18,17,37,17.20
2014,05,18,17,38,17.10
2014,05,18,17,39,17.10
2014,05,18,17,40,17.00
2014,05,18,17,41,17.00
2014,05,18,17,42,17.00
2014,05,18,17,43,17.00
2014,05,18,17,44,17.00
2014,05,18,17,45,17.00
2014,05,18,17,46,17.00
2014,05,18,17,47,17.00
2014,05,18,17,48,17.00
2014,05,18,17,49,17.00
2014,05,18,17,50,16.90
2014,05,18,17,51,16.90
2014,05,18,17,52,16.90
2014,05,18,17,53,16.90